Location: Kampung Segan
(3.1399°N, 113.1002°E)
Time: 13:48:04
(UTC+00:00)

MOS 1-B Rocket - Pass Details

Date: 13 October 2025
Orbit: 891 x 1603 km, 99.0° (Epoch: 16 November)

Event Time Altitude Azimuth Distance (km) Brightness Sun altitude
Rises 18:43:57 0° 48° (NE) 4,631 7.8 -52.3°
Reaches altitude 10° 18:48:01 10° 66° (ENE) 3,731 7.4 -51.3°
Maximum altitude 18:53:33 18° 104° (ESE) 3,202 7.0 -49.9°
Drops below altitude 10° 18:59:10 10° 143° (SE) 3,819 7.4 -48.6°
Sets 19:03:19 0° 160° (SSE) 4,782 7.9 -47.5°
